Back to catalog

STARLINK-3790

AliveCommunicationsVLEO
NORAD 52274·PAYLOAD·🇺🇸 United States

Launched Apr 21, 2022 from Cape Canaveral Space Force Station

Loading…

Next Passes (next 24 hours)

TLE

FreshSource: CelesTrak SupGP

Epoch: Sep 15, 2026, 02:14 UTC

1 52274C 22041P   26258.09354167  .00042262  00000+0  13592-2 0  2582
2 52274  53.1594 326.3428 0001053  89.1918 103.6544 15.31677715    19

Track STARLINK-3790 in real time with AllMySat

Download on the App Store